Location: Katwijk
(52.2000°N, 4.4170°E)
Time: 23:42:23
(UTC+02:00)

ISS - Visible Passes

Search period start: 22 October 2014 00:00
Search period end: 31 October 2014 23:00
Orbit: 413 x 416 km, 51.6° (Epoch: 22 October)

Date Brightness Start Highest point End Pass type
(mag) Time Alt. Az. Time Alt. Az. Time Alt. Az.
22 Oct -2.8 19:26:58 10° W 19:30:16 58° SSW 19:33:30 10° ESE visible
22 Oct -1.0 21:04:05 10° W 21:06:22 19° SW 21:06:22 19° SW visible
23 Oct -1.4 20:14:44 10° W 20:17:36 26° SSW 20:19:26 17° SSE visible
24 Oct -1.9 19:25:29 10° W 19:28:36 36° SSW 19:31:41 10° SE visible
25 Oct -0.4 20:13:46 10° WSW 20:15:38 14° SW 20:17:29 10° S visible
26 Oct -0.8 18:24:04 10° W 18:26:38 20° SW 18:29:11 10° SSE visible
28 Oct 0.1 18:23:44 10° SW 18:24:21 10° SW 18:24:59 10° SSW visible
